Location: Austin
(30.3000°N, 97.7500°W)
Time: 08:12:14
(UTC-06:00)

SWIFT - Pass Details

Date: 10 January 2026
Orbit: 401 x 407 km, 20.6° (Epoch: 22 January)

Event Time Altitude Azimuth Distance (km) Brightness Sun altitude
Rises 19:34:51 0° 243° (WSW) 2,322 6.9 -22.4°
Reaches altitude 10° 19:37:35 10° 220° (SW) 1,463 5.2 -23.0°
Enters shadow 19:39:26 15° 186° (S) 1,183 4.2 -23.4°
